Regional Weather Roundup
Issued by NWS

Home | Current Version | Previous Version | Text Only | Print | Product List | Glossary Off
Versions: 1 2 3 4 5 6 7 8 9 10 11 12 13 14 15 16 17 18 19 20 21 22 23 24 25 26 27 28 29 30 31 32 33 34 35 36 37 38 39 40 41 42 43 44 45 46 47 48 49 50

820
ASUS45 KTFX 280310
RWRMT
MONTANA REGIONAL WEATHER ROUNDUP
NATIONAL WEATHER SERVICE GREAT FALLS MT
900 PM MDT SAT MAY 27 2017

NOTE: "FAIR" INDICATES FEW OR NO CLOUDS BELOW 12000 FEET WITH NO
SIGNIFICANT WEATHER AND/OR OBSTRUCTIONS TO VISIBILITY.

MTZ001>007-043-280400-
WEST OF THE DIVIDE

CITY           SKY/WX    TMP DP  RH WIND       PRES   REMARKS
KALISPELL      CLEAR     67  44  43 SE8       30.09S
MISSOULA       CLEAR     71  41  33 S5        30.14S
BUTTE          CLEAR     62  32  32 NW5       30.23S
MULLAN PASS    CLEAR     56  36  47 NW5       30.27F
ANACONDA         N/A     61  36  39 SW5       30.21S
DEER LODGE       N/A     61  37  41 W5        30.22S
EUREKA           N/A     75  46  35 CALM      30.06R
HAMILTON         N/A     68  39  34 CALM      30.16F
RONAN            N/A     69  46  43 CALM      30.16S
$$

MTZ008-052>055-280400-
SOUTHWEST MONTANA

CITY           SKY/WX    TMP DP  RH WIND       PRES   REMARKS
BOZEMAN        CLEAR     64  34  32 SE3       30.18S
DILLON         CLEAR     63  32  31 CALM      30.20F
ENNIS          CLEAR     50  39  66 NE5       30.27S
THREE FORKS      N/A     62  44  51 CALM      30.15S
TWIN BRIDGES     N/A     62  37  39 CALM      30.17S
$$

MTZ009-010-012-014-046-048-049-054-280400-
EAST SLOPES AND CENTRAL MONTANA

CITY           SKY/WX    TMP DP  RH WIND       PRES   REMARKS
CUT BANK       CLEAR     62  40  44 W9        30.10S
GREAT FALLS    MOCLDY    62  42  47 S6        30.10S
MALMSTROM AFB  PTCLDY    59  46  61 S9        30.10S
HELENA         CLOUDY    69  36  29 W8        30.13S
CHOTEAU          N/A     63  41  45 NW9       30.14S
CONRAD           N/A     66  44  45 W7        30.12S
$$

MTZ011-013-016-021-045-047-050-051-280400-
NORTH CENTRAL MONTANA

CITY           SKY/WX    TMP DP  RH WIND       PRES   REMARKS
HAVRE          CLOUDY    67  45  45 NE15G23   30.05R
LEWISTOWN      CLEAR     54  42  64 SW13      30.12S
N BAR RANCH      N/A     57  37  47 NW7       30.15S
CHINOOK          N/A     63  46  55 N6        30.05R
FORT BENTON      N/A     72  36  26 MISG      30.08R
$$

MTZ017>020-022>027-061-062-280400-
NORTHEAST MONTANA

CITY           SKY/WX    TMP DP  RH WIND       PRES   REMARKS
GLASGOW        PTCLDY    65  38  36 NW9       29.95S
JORDAN           N/A     63  34  33 NW3       29.98S
SIDNEY         PTCLDY    58  39  49 NW9       29.89S
WOLF POINT     CLOUDY    67  37  33 NW10      29.92R
MALTA          MOCLDY    70  37  30 NW14      29.99R
PLENTYWOOD       N/A     64  32  29 NW10      29.89R
POPLAR           N/A     64  41  42 NW10      29.92R
SCOBEY           N/A     62  33  33 NW3       29.93R
$$

MTZ028>42-056>058-280400-
SOUTHCENTRAL AND SOUTHEAST MONTANA

CITY           SKY/WX    TMP DP  RH WIND       PRES   REMARKS
BAKER          CLEAR     57  39  51 CALM      29.98S
BILLINGS       MOCLDY    65  38  36 W13       30.10S
LIVINGSTON     CLEAR     56  39  53 SW12      30.17S
MILES CITY     CLEAR     63  34  33 NW7       29.99R
BIG TIMBER     CLEAR     59  36  41 W10       30.18S
EKALAKA          N/A     56  43  61 CALM      30.00R
FORSYTH          N/A     68  36  30 CALM      30.01S
LAUREL           N/A     63  34  33 W7        30.10F
ROUNDUP          N/A     63  36  36 W6        30.00S
$$

REGIONAL REPORTS...DAKOTAS

CITY           SKY/WX    TMP DP  RH WIND       PRES   REMARKS
WILLISTON      PTCLDY    65  44  46 N13       29.87R
MINOT          CLEAR     54  45  71 CALM      29.82S
DICKINSON      CLEAR     54  38  54 W10       29.88S
BEACH            N/A     55  43  62 W10       29.96S
CROSBY           N/A     55  39  54 N8        29.87R
TIOGA            N/A     59  36  41 N12       29.87R
WATFORD CITY     N/A     64  36  34 NW6G13    29.86R
BISMARCK       CLEAR     58  44  60 SW3       29.86R
GRAND FORKS    LGT RAIN  55  50  83 NW22G30   29.72F
FARGO          CLOUDY    60  45  57 NW21G29   29.77R
BUFFALO SD       N/A     58  47  66 NW10      29.93R
RAPID CITY     LGT RAIN  60  42  51 NW20      30.05R
$$

REGIONAL REPORTS...WYOMING/IDAHO/WASHINGTON

CITY           SKY/WX    TMP DP  RH WIND       PRES   REMARKS
GILLETTE       CLOUDY    54  41  61 W10       30.12R
SHERIDAN       CLOUDY    60  41  49 N17G24    30.14R
BUFFALO WY     PTCLDY    53  37  54 W8        30.17R
CODY           CLEAR     58  32  37 CALM      30.21R
YELLOWSTONE LA   N/A     41  36  82 CALM      30.36R
IDAHO FALLS    MOCLDY    62  41  46 S7        30.24S
SALMON         CLEAR     61  43  51 CALM      30.15S
BOISE          CLEAR     73  34  23 NW6       30.13S
SPOKANE        PTCLDY    76  40  27 SW7       30.12S
$$

REGIONAL REPORTS...ALBERTA

CITY           SKY/WX    TMP DP  RH WIND       PRES   REMARKS
EDMONTON       PTCLDY    66  36  32 N13       30.06R
CALGARY        PTCLDY    68  37  32 W5        30.10R
LETHBRIDGE     MOCLDY    70  43  37 CALM      30.04S
MEDICINE HAT   PTCLDY    68  46  45 E3        30.01R
WATERTON GATE    N/A     63  36  36 SW6         N/A
CARDSTON         N/A     68  37  32 W6          N/A
MILK RIVER       N/A     63  45  51 NW7         N/A
ONEFOUR          N/A     66  41  39 N8          N/A
$$

REGIONAL REPORTS...SASKATCHEWAN

CITY           SKY/WX    TMP DP  RH WIND       PRES   REMARKS
SWIFT CURRENT  CLEAR     61  36  39 N10       29.97R
REGINA         PTCLDY    61  36  39 N14       29.90R
SASKATOON      PTCLDY    59  36  41 N8        29.91S
CYPRESS HILLS    N/A     54  41  62 W5          N/A
VAL MARIE        N/A     64  37  36 NW15        N/A
ROCKGLEN         N/A     61  32  33 N14G21      N/A
ASSINIBOIA       N/A     68  34  28 N13         N/A
$$




USA.gov is the U.S. government's official web portal to all federal, state and local government web resources and services.